Location: Blankensee
(53.5126°N, 14.3055°E)
Time: 18:14:57
(UTC+00:00)

Spot 1 - Pass Details

Date: 08 August 2020
Orbit: 576 x 776 km, 98.7° (Epoch: 19 September)

Event Time Altitude Azimuth Distance (km) Brightness Sun altitude
Exits shadow 00:03:33 35° 144° (SE) 955 4.7 -19.4°
Maximum altitude 00:05:10 70° 71° (ENE) 629 4.1 -19.4°
Drops below altitude 10° 00:09:15 10° 348° (NNW) 1,905 7.5 -19.2°
Sets 00:11:24 0° 346° (NNW) 2,807 8.5 -19.1°
